TimeEDT,TemperatureF,Dew PointF,Humidity,Sea Level PressureIn,VisibilityMPH,Wind Direction,Wind SpeedMPH,Gust SpeedMPH,PrecipitationIn,Events,Conditions,WindDirDegrees,DateUTC
12:53 AM,59.0,55.9,90,30.00,10.0,Calm,Calm,-,N/A,,Clear,0,2013-04-30 04:53:00
1:53 AM,57.0,55.0,93,29.99,8.0,Calm,Calm,-,0.01,,Clear,0,2013-04-30 05:53:00
2:53 AM,57.0,55.0,93,29.98,10.0,Calm,Calm,-,N/A,,Clear,0,2013-04-30 06:53:00
3:53 AM,59.0,55.9,90,29.99,9.0,Calm,Calm,-,N/A,,Clear,0,2013-04-30 07:53:00
4:53 AM,55.9,54.0,93,30.00,8.0,Calm,Calm,-,N/A,,Clear,0,2013-04-30 08:53:00
5:53 AM,57.9,55.9,93,30.01,9.0,North,6.9,-,N/A,,Mostly Cloudy,10,2013-04-30 09:53:00
6:27 AM,57.2,55.4,94,30.04,10.0,Calm,Calm,-,N/A,,Mostly Cloudy,0,2013-04-30 10:27:00
6:40 AM,57.2,53.6,88,30.05,10.0,NE,6.9,-,N/A,,Scattered Clouds,40,2013-04-30 10:40:00
6:53 AM,59.0,55.9,90,30.03,10.0,NE,8.1,-,N/A,,Partly Cloudy,40,2013-04-30 10:53:00
7:40 AM,59.0,55.4,88,30.07,7.0,NE,10.4,-,N/A,,Scattered Clouds,40,2013-04-30 11:40:00
7:45 AM,57.2,55.4,94,30.07,2.0,NE,9.2,-,N/A,,Mostly Cloudy,40,2013-04-30 11:45:00
7:53 AM,57.9,57.0,97,30.06,0.8,NNE,8.1,-,N/A,,Mist,30,2013-04-30 11:53:00
8:04 AM,59.0,57.2,94,30.08,1.2,North,8.1,-,N/A,,Overcast,10,2013-04-30 12:04:00
8:53 AM,60.1,57.9,93,30.08,1.8,NE,9.2,-,N/A,,Overcast,40,2013-04-30 12:53:00
9:01 AM,60.8,57.2,88,30.09,3.0,NE,8.1,-,N/A,,Overcast,40,2013-04-30 13:01:00
9:53 AM,63.0,59.0,87,30.08,8.0,NNE,6.9,-,N/A,,Overcast,30,2013-04-30 13:53:00
10:23 AM,66.2,59.0,78,30.10,10.0,ENE,9.2,-,N/A,,Overcast,70,2013-04-30 14:23:00
10:53 AM,66.9,59.0,76,30.09,10.0,Variable,6.9,-,N/A,,Mostly Cloudy,0,2013-04-30 14:53:00
11:53 AM,68.0,59.0,73,30.09,10.0,ENE,8.1,-,N/A,,Mostly Cloudy,70,2013-04-30 15:53:00
12:11 PM,69.8,60.8,73,30.11,10.0,East,8.1,-,N/A,,Scattered Clouds,80,2013-04-30 16:11:00
12:53 PM,70.0,60.1,71,30.09,10.0,East,10.4,-,N/A,,Mostly Cloudy,100,2013-04-30 16:53:00
1:08 PM,69.8,59.0,68,30.10,10.0,East,9.2,-,N/A,,Scattered Clouds,100,2013-04-30 17:08:00
1:53 PM,71.1,60.1,68,30.07,10.0,East,11.5,-,N/A,,Partly Cloudy,80,2013-04-30 17:53:00
2:53 PM,73.9,59.0,59,30.06,10.0,East,10.4,-,N/A,,Partly Cloudy,100,2013-04-30 18:53:00
3:53 PM,73.9,55.9,53,30.05,10.0,SE,9.2,-,N/A,,Scattered Clouds,140,2013-04-30 19:53:00
4:53 PM,75.9,55.9,50,30.06,10.0,SE,9.2,-,N/A,,Scattered Clouds,140,2013-04-30 20:53:00
5:53 PM,75.0,55.0,50,30.06,10.0,South,6.9,-,N/A,,Partly Cloudy,180,2013-04-30 21:53:00
6:53 PM,71.1,57.0,61,30.07,10.0,ESE,12.7,-,N/A,,Partly Cloudy,110,2013-04-30 22:53:00
7:53 PM,69.1,57.0,65,30.09,10.0,East,8.1,-,N/A,,Clear,90,2013-04-30 23:53:00
8:53 PM,66.9,57.9,73,30.10,10.0,East,3.5,-,N/A,,Clear,80,2013-05-01 00:53:00
9:53 PM,66.0,59.0,78,30.12,10.0,NE,5.8,-,N/A,,Clear,40,2013-05-01 01:53:00
10:53 PM,64.9,57.9,78,30.14,10.0,ENE,8.1,-,N/A,,Clear,70,2013-05-01 02:53:00
11:53 PM,63.0,57.0,81,30.16,10.0,ENE,8.1,-,N/A,,Clear,60,2013-05-01 03:53:00